Wind_Speed
31 31 31 31 31 30 30 30 30 30 30 29 28 26 25 24 22 21 20 19 18 17 16 16 15 14 14 14 13 12 12 11 10 8 8 7 7 7 6 6 7 8 8 9 10 11 11 12 12 12 12 13 14 14 14 14 15 15 16 17 17 17 18 18 19 19 19 20 20 20 20 20 19 18 17 15 13 9 9 10 9 10 12 14 14 13 12 11
32 32 32 32 32 32 31 31 31 31 30 30 29 27 26 25 24 23 22 21 20 19 18 17 16 16 15 15 14 14 13 12 11 10 9 9 9 9 8 8 8 9 10 11 11 12 13 13 14 14 15 15 16 16 16 16 17 17 17 18 18 18 19 20 20 21 21 21 21 20 20 19 18 17 16 15 14 12 11 11 11 11 11 13 14 14 14 13
32 33 33 33 33 33 32 32 32 32 31 30 30 29 28 26 25 24 23 22 21 20 20 19 18 17 17 16 16 15 15 14 13 12 12 11 11 11 10 10 10 11 11 12 12 13 14 15 15 16 16 17 17 18 18 18 18 18 19 19 19 19 20 21 22 22 22 21 20 20 19 19 18 16 16 16 15 14 13 13 12 12 12 13 14 15 15 15
33 33 33 34 34 34 33 33 33 32 32 31 30 30 29 28 27 26 25 24 23 22 21 20 20 19 18 18 17 17 16 16 15 14 14 13 13 13 12 12 12 12 13 13 13 14 15 16 16 17 18 18 18 19 19 19 19 19 19 19 19 20 21 22 23 23 22 21 20 19 19 19 18 16 16 16 17 15 15 15 15 14 14 14 15 15 16 16
34 34 34 34 34 34 34 34 33 33 32 32 31 30 30 29 28 27 26 26 25 24 23 22 21 20 20 19 19 18 18 18 17 17 16 16 15 15 14 14 14 15 15 15 15 15 16 17 17 18 18 19 19 19 20 20 20 20 20 20 21 21 22 23 23 23 23 22 21 20 20 20 19 18 17 18 18 17 16 17 17 17 17 16 16 16 16 17
35 35 35 35 35 34 34 34 34 33 33 32 32 31 30 30 29 29 28 27 26 25 24 23 22 22 21 21 20 20 20 19 18 18 18 18 17 17 16 17 17 17 17 17 17 17 18 18 19 19 20 20 20 21 21 21 21 21 22 22 22 23 24 24 24 24 23 22 22 22 22 22 21 19 19 19 19 18 18 19 19 19 20 20 19 18 17 17
36 36 36 36 36 35 35 35 34 34 33 33 32 32 31 31 30 30 29 28 27 26 25 25 24 23 22 22 22 22 22 21 20 20 20 19 19 19 19 19 19 19 19 19 19 20 20 20 21 21 21 21 22 22 22 23 23 23 23 24 24 24 25 25 25 24 24 23 23 24 24 24 23 21 21 21 20 20 20 20 21 21 22 22 21 20 19 18
37 37 37 37 36 36 36 35 35 34 34 33 33 33 32 32 31 31 30 29 28 28 27 26 25 25 24 24 24 24 24 23 22 22 22 22 21 21 21 21 21 21 21 22 22 22 22 22 22 23 23 23 23 23 23 24 24 24 25 26 26 26 27 27 26 25 25 24 25 26 26 25 24 23 23 23 22 22 22 22 22 23 24 24 23 22 21 20
39 39 38 38 37 37 36 36 36 35 35 34 34 34 33 33 33 32 31 31 30 29 28 28 27 27 26 26 26 26 26 26 24 24 24 24 24 23 23 23 23 23 23 24 24 24 24 24 24 24 24 24 24 25 25 25 26 26 27 28 28 28 28 28 27 26 26 26 26 27 27 26 26 26 24 24 24 24 23 23 23 24 25 25 24 23 22 21
40 40 40 39 39 38 38 37 37 36 36 36 36 35 35 34 34 34 33 32 32 31 30 30 29 29 28 28 28 28 28 28 26 25 26 26 26 25 25 25 25 25 26 26 25 25 25 25 25 25 25 25 26 26 26 26 27 28 29 30 30 30 30 29 28 28 28 28 28 28 28 27 27 28 25 25 26 25 25 24 24 24 24 24 24 23 23 23
42 42 41 41 40 40 39 39 38 38 38 37 37 37 36 36 36 35 34 34 33 33 32 32 31 31 30 30 30 29 30 30 28 27 27 27 27 27 27 27 27 27 27 27 27 26 26 26 26 26 26 26 27 27 27 28 29 30 31 31 32 32 32 31 30 30 30 30 30 30 30 29 29 29 27 26 26 25 25 24 24 24 23 23 23 23 24 25
43 43 43 43 42 42 41 41 40 40 39 39 39 38 38 38 37 37 36 36 35 35 34 34 33 33 32 32 31 31 32 32 30 29 29 29 29 29 29 29 29 29 29 28 28 27 27 27 27 27 27 27 28 29 29 30 31 32 33 33 33 34 33 32 32 32 32 31 31 31 31 30 29 28 28 27 26 25 25 24 24 23 23 23 24 24 25 26
44 44 44 44 44 43 43 43 42 42 41 41 40 40 40 39 39 39 38 38 37 37 36 36 35 35 35 34 33 33 33 33 32 31 31 31 31 31 30 30 30 30 30 30 29 28 28 28 28 29 29 30 30 31 32 32 34 34 34 34 34 34 34 33 33 34 33 32 31 32 32 32 29 27 28 28 26 26 25 25 24 24 24 25 26 26 27 27
46 46 45 45 45 45 45 44 44 44 43 43 42 42 42 41 41 40 40 40 39 39 38 38 38 37 37 36 34 34 35 34 34 33 33 33 33 32 32 32 32 32 32 31 31 30 30 31 31 32 32 33 33 34 34 34 35 36 35 35 35 35 36 34 33 34 33 31 32 32 32 33 29 26 28 28 27 27 26 26 26 26 27 27 28 28 28 28
47 46 46 47 47 46 46 46 46 45 45 45 44 44 43 43 43 42 42 42 41 41 40 40 40 39 39 37 36 36 36 36 36 36 36 35 35 34 34 34 34 34 34 33 33 33 33 33 34 34 35 35 35 35 36 36 36 36 36 37 36 35 37 34 31 32 31 31 32 31 31 32 29 26 28 29 28 28 28 28 28 29 30 29 30 29 29 28
48 48 48 48 47 47 47 47 47 47 46 46 46 45 45 45 44 44 44 43 43 43 42 42 41 41 41 39 37 37 37 37 38 38 38 37 37 36 36 36 36 36 36 35 35 35 35 36 36 37 37 36 36 36 37 37 36 36 37 38 37 34 34 34 31 29 30 30 30 30 30 31 29 27 29 30 30 30 30 31 31 31 31 31 31 30 29 29
50 49 49 49 48 48 48 48 48 48 48 47 47 47 47 47 46 46 46 45 45 45 44 44 43 43 43 40 39 38 39 39 40 40 39 39 39 38 38 38 38 38 37 37 38 37 37 38 38 38 38 37 36 36 38 38 36 38 37 36 36 33 31 32 31 28 29 31 31 31 31 32 32 30 30 32 32 32 33 32 33 33 32 32 32 31 30 29
51 51 50 50 50 50 50 49 49 49 48 48 49 48 48 48 48 48 48 47 47 46 46 46 45 45 44 43 41 40 41 41 41 41 41 41 41 40 40 40 40 39 39 39 39 39 39 40 39 40 38 36 35 36 37 37 37 37 36 33 32 32 30 30 33 30 30 33 35 35 33 33 35 34 33 33 33 33 33 32 33 33 33 33 32 32 31 30
53 52 52 51 51 51 50 50 50 50 50 50 50 50 50 50 50 49 49 49 49 48 48 47 46 47 46 45 44 43 42 43 43 42 42 42 42 42 42 41 41 41 41 41 41 40 41 41 41 41 37 34 35 35 36 37 36 35 35 35 33 34 32 31 34 34 35 38 38 37 36 35 35 36 34 32 33 34 32 32 33 33 33 33 33 32 32 31
53 53 53 53 52 52 51 51 52 51 51 51 51 51 51 51 51 51 51 51 50 50 50 49 48 49 48 47 46 45 44 44 44 44 44 44 44 43 43 43 43 43 43 42 42 41 42 43 42 37 33 34 34 34 36 37 36 35 37 37 36 37 35 34 37 36 37 41 41 38 38 36 34 36 35 31 32 33 32 32 32 33 33 33 33 32 32 32
54 53 53 53 53 53 53 52 52 52 52 52 52 51 51 51 52 52 52 51 51 51 51 51 51 50 50 49 48 47 46 46 45 45 45 45 45 45 45 45 45 44 43 43 43 42 42 42 37 32 32 34 35 36 37 37 36 35 36 36 36 36 34 35 38 38 38 42 42 40 39 37 34 35 35 31 31 32 30 31 32 32 32 32 32 32 32 31
55 54 54 54 54 54 54 54 53 53 53 53 53 53 52 53 53 54 53 53 53 52 52 53 52 52 51 50 50 49 48 48 47 47 47 47 47 48 47 46 45 44 42 42 41 40 40 38 33 32 34 36 37 37 36 35 35 35 35 36 36 34 33 34 36 36 36 39 41 40 38 37 34 34 33 31 32 32 30 32 32 32 33 32 32 31 31 30
57 56 55 54 54 54 54 54 54 55 54 54 54 54 54 55 55 55 56 57 56 54 54 54 54 53 53 52 51 51 51 50 49 49 49 48 48 47 46 44 43 43 41 39 38 38 38 37 35 35 37 36 37 36 35 36 36 36 36 37 37 36 35 36 37 35 34 36 38 38 37 35 32 33 32 30 32 32 31 33 33 33 33 33 32 31 30 29
59 58 57 56 56 55 54 54 55 55 55 55 54 54 55 55 55 56 57 59 60 57 56 56 56 56 56 55 53 53 53 52 52 51 48 47 46 45 45 42 41 43 41 38 37 39 40 41 39 37 37 37 37 36 36 37 37 37 37 38 38 39 39 40 40 38 36 36 36 36 37 35 32 33 32 31 32 33 33 34 34 34 33 32 32 30 29 29
60 60 59 59 59 58 56 56 55 55 55 54 55 55 55 55 55 56 56 59 61 59 56 56 57 57 57 56 56 56 55 53 52 50 46 46 45 44 44 42 41 42 41 39 39 40 42 43 40 37 37 37 38 39 38 38 38 39 40 39 38 40 42 42 42 40 40 40 37 35 38 39 35 33 32 32 34 33 33 33 32 32 31 31 30 29 29 29
61 61 60 60 61 60 60 59 57 57 56 55 56 57 57 56 56 57 56 59 62 58 55 54 54 55 55 55 55 54 54 54 52 49 46 46 45 43 42 41 41 41 40 39 39 40 42 42 39 37 37 39 40 41 40 38 39 42 44 42 39 42 44 44 44 43 42 43 41 37 38 40 39 36 32 32 35 34 33 33 32 31 30 30 29 29 29 29
60 60 60 61 61 61 61 60 58 59 58 57 58 59 59 58 58 58 57 60 64 59 55 54 53 53 53 52 52 52 53 52 49 47 45 44 43 42 42 42 41 40 40 41 40 41 42 41 40 39 40 41 42 43 41 39 41 45 47 44 43 44 45 46 46 45 44 45 45 42 39 40 41 38 33 33 35 34 33 33 32 31 29 28 28 28 28 28
58 57 57 58 60 61 61 60 59 59 59 60 60 61 61 61 61 61 59 63 65 60 57 55 53 53 53 52 52 52 52 50 46 45 43 43 42 42 42 42 42 41 41 43 43 43 43 43 43 42 42 44 44 43 42 42 44 47 48 47 47 47 47 47 48 48 47 46 47 45 40 40 40 38 34 33 34 32 31 32 30 28 27 26 26 26 26 27
58 57 56 56 57 58 58 59 58 58 59 60 61 62 63 64 64 63 63 66 65 62 61 59 57 55 54 54 53 52 51 50 49 47 45 45 45 45 44 44 45 45 44 44 45 46 47 46 44 44 46 47 46 45 44 45 47 48 49 49 50 49 49 49 48 49 49 49 48 45 40 39 40 40 36 31 31 31 30 30 28 26 26 25 26 26 26 26
61 60 59 59 58 57 56 56 56 57 60 62 63 63 64 65 65 65 67 67 63 63 65 65 61 59 57 56 55 54 52 52 51 49 49 48 47 47 46 46 47 48 47 47 48 49 49 48 47 48 48 48 48 47 47 48 48 49 49 49 50 50 49 49 48 48 49 50 47 42 39 38 40 41 37 30 28 30 29 28 27 26 26 25 25 25 25 26
60 61 62 61 60 59 58 58 56 57 60 63 64 64 64 65 65 67 67 62 59 62 66 67 63 60 60 59 57 56 54 53 52 51 50 49 48 48 48 48 48 49 50 50 50 50 49 50 51 50 50 50 50 50 49 49 49 49 49 48 48 48 47 47 47 48 49 49 46 40 37 38 40 41 37 31 27 28 27 27 26 25 25 24 25 25 26 27
56 57 59 60 60 60 60 59 57 58 61 63 65 66 65 65 68 69 64 58 59 63 65 65 62 58 59 59 58 57 55 54 52 51 51 50 50 50 49 49 49 50 52 52 51 50 50 51 53 52 52 52 52 51 50 49 48 47 46 46 44 45 46 47 47 48 47 46 44 40 36 38 40 38 37 33 28 26 27 26 25 25 24 25 26 27 28 29
51 51 53 55 56 58 58 57 57 59 60 61 65 66 66 70 71 67 62 61 64 65 64 65 63 59 57 57 56 55 54 53 52 51 51 51 51 51 51 52 52 52 53 53 52 52 53 53 54 54 54 52 51 50 49 48 47 46 45 45 43 43 46 47 45 44 43 42 41 38 37 39 39 35 34 33 29 27 27 26 25 25 26 27 28 29 30 31
49 48 49 51 53 55 55 55 55 56 56 60 65 66 69 72 68 62 64 66 67 66 64 65 65 62 59 56 54 53 54 54 53 52 53 52 53 54 53 53 53 52 52 54 55 54 55 55 54 53 53 52 50 49 49 48 46 45 45 45 44 43 43 42 39 39 40 39 38 37 38 40 37 32 31 31 30 29 29 28 28 29 29 30 30 31 32 33
50 52 54 53 54 55 54 54 55 55 54 57 62 68 71 70 64 63 66 67 67 67 64 64 65 64 60 58 56 55 56 56 56 55 56 56 56 57 57 56 55 53 53 55 57 56 56 57 57 55 53 52 49 48 48 47 45 45 45 44 42 38 36 36 36 38 39 39 39 39 39 38 35 33 31 31 31 31 31 32 32 32 32 31 32 33 34 35
49 52 56 56 56 55 54 54 54 55 54 53 58 64 64 60 60 64 65 65 66 66 63 64 66 64 62 60 58 57 57 57 57 57 58 58 59 59 60 59 56 55 55 55 56 57 57 58 58 56 53 51 49 48 47 46 45 45 44 41 38 33 33 36 38 38 40 40 40 38 36 35 34 34 34 33 32 33 34 35 34 33 32 32 34 35 36 36
49 47 49 51 53 55 55 53 51 51 52 52 57 58 52 51 54 58 61 62 63 62 61 64 64 63 63 63 61 60 59 58 58 58 58 58 59 58 58 58 55 55 54 52 52 55 54 55 55 51 50 48 47 47 46 45 46 44 41 39 36 35 37 38 39 40 39 39 38 36 34 33 33 34 34 34 35 36 37 37 35 33 33 34 36 38 38 37
51 48 46 44 45 48 50 49 48 50 50 51 54 53 49 49 49 51 55 57 59 60 61 62 62 62 63 63 62 60 58 58 57 56 57 56 55 53 52 53 52 51 49 47 49 51 49 50 51 47 46 46 45 45 46 45 44 42 40 38 37 39 40 39 40 39 38 37 35 35 34 33 33 34 33 34 36 38 39 39 38 36 37 38 40 40 40 39
52 51 47 42 42 43 44 44 46 50 51 50 50 48 47 49 48 48 51 52 55 59 59 59 59 60 60 60 59 58 56 56 55 54 53 52 49 48 47 47 47 46 45 44 46 47 46 47 49 47 44 44 44 45 45 44 42 40 40 39 39 40 40 40 40 38 37 37 36 35 36 36 35 34 33 33 35 38 40 40 40 40 40 41 41 41 40 40
54 54 51 46 44 44 44 45 48 51 52 52 50 46 44 46 48 48 48 50 54 56 57 57 58 58 58 57 57 56 53 53 53 52 50 49 47 46 44 44 43 43 43 42 44 46 46 47 48 46 44 43 44 43 42 42 41 41 42 42 41 41 41 42 41 39 39 39 38 39 41 41 39 37 35 34 35 37 39 40 41 41 41 42 42 41 41 41
56 57 56 53 50 48 48 50 53 54 54 53 51 48 47 47 47 47 48 49 53 55 55 56 57 57 57 56 56 55 52 51 53 52 50 49 47 45 43 42 42 42 41 42 43 44 45 45 46 46 44 43 43 42 42 43 44 44 45 44 44 43 43 44 44 42 42 41 41 42 43 43 42 42 40 39 39 38 38 39 40 41 42 43 43 43 42 42
59 58 55 55 54 52 52 55 56 56 55 54 51 48 48 48 46 46 46 46 50 54 55 57 58 58 57 55 55 55 53 52 53 54 52 50 48 46 45 43 42 42 42 43 43 43 43 43 45 46 45 44 44 43 44 46 47 48 48 48 47 45 45 46 46 45 44 43 44 45 46 44 43 43 43 44 44 41 40 40 41 42 43 44 45 45 44 44
64 60 57 57 56 54 55 56 58 58 56 55 54 51 49 49 48 47 45 45 48 52 54 55 57 58 59 58 57 57 56 55 56 56 54 53 52 50 48 46 45 44 44 44 44 45 45 44 45 48 48 47 47 48 48 49 51 51 51 50 48 45 45 47 47 47 48 48 47 47 48 46 43 44 46 47 46 44 43 43 43 45 46 45 46 47 47 47
64 63 61 60 59 59 59 59 59 58 56 56 57 55 53 52 51 49 47 45 46 49 50 49 50 53 56 59 60 60 60 59 59 58 57 57 56 54 52 50 48 47 45 45 45 46 46 45 47 50 52 52 52 52 52 52 53 53 51 49 47 46 47 49 49 50 51 51 51 51 50 47 46 47 48 47 47 47 47 47 46 49 50 48 48 48 48 49
65 63 62 62 62 62 62 62 61 60 59 59 59 57 56 55 53 51 50 48 46 47 48 47 46 47 49 54 57 59 59 59 59 59 59 59 59 58 56 54 51 48 46 47 48 48 48 48 50 54 56 56 56 54 52 50 50 50 48 48 47 48 49 49 50 53 53 53 53 52 50 49 48 49 49 48 49 49 49 49 49 50 51 50 50 51 51 51
67 66 65 64 64 64 63 62 63 63 63 62 62 60 60 59 55 54 54 52 48 47 48 49 49 47 47 50 53 54 55 57 57 58 58 57 58 59 59 57 54 50 49 50 52 52 52 53 54 56 57 57 56 55 51 49 48 49 49 50 50 50 49 51 53 55 53 53 53 52 51 51 50 50 50 50 51 51 50 51 50 50 50 51 52 53 54 55
68 69 68 66 64 66 67 64 63 63 62 62 63 62 62 62 60 58 58 55 51 50 50 51 51 50 49 49 51 52 54 55 57 58 57 57 58 59 59 58 56 53 53 54 56 58 58 58 58 57 57 57 57 56 53 51 51 52 52 54 55 54 53 55 56 54 53 55 55 53 53 52 50 51 53 52 52 51 50 50 50 51 52 53 54 55 56 57
68 68 69 68 66 67 69 67 64 62 62 62 63 62 62 62 62 63 61 58 55 54 54 53 51 51 51 50 51 53 55 56 57 57 58 58 59 59 58 58 57 56 56 57 59 60 61 60 58 57 57 56 57 57 55 54 55 55 55 56 56 57 57 57 56 55 55 57 55 54 54 53 51 53 54 52 51 50 49 50 51 52 53 55 56 57 57 59
69 68 67 69 69 67 67 67 65 63 62 62 63 62 62 62 62 62 61 60 59 59 58 55 50 49 52 52 52 54 55 55 56 56 56 57 57 56 56 56 56 54 54 56 56 57 58 58 56 56 56 56 57 59 59 58 58 57 57 57 57 58 59 59 58 57 57 57 53 53 55 54 52 53 53 51 49 50 51 52 51 52 54 56 58 59 60 61
70 69 67 67 68 67 66 66 65 64 63 62 63 63 62 62 60 59 60 61 61 61 61 58 52 49 51 53 53 54 52 51 51 51 52 53 54 54 54 55 55 54 54 54 53 53 54 55 56 57 58 59 61 62 63 62 60 59 58 57 57 59 60 59 58 56 57 54 52 54 56 52 50 52 52 51 51 51 52 52 53 55 57 59 61 62 62 63
70 70 69 68 68 67 67 67 66 65 64 63 63 63 63 62 60 59 60 61 61 62 62 60 55 52 52 52 52 51 49 49 51 51 50 51 52 54 56 57 57 58 58 57 56 55 55 56 56 56 59 61 62 63 64 63 62 62 61 60 61 62 60 57 55 54 55 54 53 55 54 49 49 51 52 51 52 53 54 56 58 60 61 62 63 62 61 61
71 71 70 70 70 69 68 67 67 67 66 64 63 63 63 61 59 59 61 63 62 62 63 63 62 60 58 55 54 52 52 52 52 52 51 50 51 53 57 60 60 60 60 60 59 59 59 60 58 58 59 61 62 62 62 62 62 63 64 62 62 60 57 55 54 53 55 55 55 54 51 48 51 52 52 53 55 57 60 61 62 63 62 61 60 58 58 58
Wind_Direction
210 207 204 202 201 200 199 198 197 196 196 196 196 196 197 198 199 201 202 203 204 206 208 210 213 215 217 218 219 219 219 218 220 224 231 237 242 249 256 261 268 272 274 274 273 272 271 270 269 269 269 269 270 271 272 275 278 281 285 287 289 292 293 293 294 295 296 298 299 300 302 302 302 303 303 300 292 280 268 273 287 303 309 308 303 298 293 288
207 205 203 201 200 200 199 199 198 198 198 198 199 200 201 202 203 205 206 208 209 210 212 215 218 221 224 225 226 227 227 227 228 232 237 243 248 252 256 261 265 269 271 272 271 270 270 269 269 269 269 270 271 273 275 278 280 282 285 287 290 293 293 295 296 297 298 298 299 300 300 300 299 300 300 296 288 278 269 270 281 295 304 302 297 293 289 286
206 204 203 202 201 200 200 200 200 200 201 202 203 204 205 206 207 209 210 212 213 215 217 219 222 225 228 231 233 233 235 236 237 239 242 247 251 254 258 262 266 269 272 273 274 274 272 271 270 270 270 270 272 274 276 278 280 282 284 287 290 292 294 296 297 298 299 299 299 299 299 298 297 298 296 291 286 281 274 272 276 286 296 295 290 287 285 285
206 205 204 203 203 202 202 202 202 203 204 205 206 208 209 210 211 212 214 216 217 219 221 223 226 229 232 235 238 239 241 242 243 245 248 250 253 257 261 265 268 272 275 276 277 276 274 273 271 271 270 271 272 274 276 277 280 282 283 286 289 292 295 297 298 298 298 299 299 299 298 297 296 296 292 287 285 282 276 275 276 281 289 291 286 283 282 284
207 206 206 205 205 205 205 205 205 206 207 209 210 212 213 214 215 216 218 219 221 223 225 227 229 232 235 238 241 244 246 246 248 250 252 254 256 260 264 267 271 274 277 279 280 278 276 274 273 272 272 272 273 274 276 278 279 281 283 285 288 292 295 297 298 298 297 297 298 297 296 295 295 295 291 285 283 282 277 276 279 282 287 289 286 281 279 279
210 209 208 208 208 208 208 208 209 209 211 212 214 215 216 218 219 220 221 223 224 226 228 230 233 235 238 241 244 247 249 249 251 253 254 256 259 262 265 268 271 275 278 281 282 280 278 275 274 273 273 273 274 276 277 278 279 281 283 285 288 292 295 296 296 296 295 295 295 294 293 293 294 293 290 285 282 281 279 278 280 283 288 289 287 283 278 276
213 212 211 211 211 211 211 212 212 213 214 216 217 218 220 221 222 223 224 225 227 229 231 233 236 238 241 244 247 249 251 251 252 255 256 258 260 262 265 268 271 275 278 281 282 282 280 277 275 274 274 274 275 276 277 279 280 281 283 286 288 291 294 294 294 293 292 292 292 291 291 291 291 290 286 283 280 279 278 278 279 283 286 287 287 284 280 277
216 216 215 214 214 214 215 215 216 217 218 219 220 221 222 223 224 225 226 228 229 231 233 236 238 240 243 246 248 251 252 252 252 254 256 258 260 263 265 268 272 275 278 281 282 282 280 278 276 275 274 274 275 276 277 279 280 282 284 287 289 291 293 293 291 290 289 289 289 288 289 289 289 287 283 281 279 276 275 276 278 281 283 284 284 283 281 280
218 218 218 218 218 217 218 218 219 220 221 222 223 223 224 225 226 227 229 230 231 233 235 237 240 242 244 247 249 252 254 254 253 254 257 259 261 263 266 269 272 276 278 280 281 281 280 278 276 275 275 275 276 276 277 279 281 283 285 287 289 291 292 291 289 288 288 287 287 286 286 288 287 284 282 280 277 276 274 274 275 277 280 281 282 281 280 280
221 220 221 221 221 221 221 222 222 223 224 225 225 226 227 228 229 230 231 232 234 236 237 239 241 243 245 248 250 253 255 256 255 255 257 259 262 265 267 270 273 276 278 280 281 280 279 278 277 276 276 276 276 277 278 279 281 283 286 288 289 290 290 289 288 287 287 286 286 285 285 286 284 283 281 278 276 275 275 274 274 274 276 278 279 279 279 280
223 223 223 223 224 225 225 225 225 226 227 228 228 229 230 230 231 232 233 235 236 238 240 241 243 245 247 249 251 253 256 257 257 257 258 260 263 266 268 271 274 276 278 279 279 279 279 278 277 277 276 276 277 277 279 280 282 283 285 287 289 289 289 289 288 288 287 286 286 286 285 284 282 282 281 277 276 276 275 274 273 273 274 275 276 277 279 281
225 225 225 226 226 227 228 228 229 229 230 231 232 232 233 234 234 235 236 237 239 240 242 243 245 246 248 249 251 253 256 258 258 258 259 261 264 267 269 271 274 275 277 277 278 278 277 276 276 276 276 277 277 278 279 281 282 283 285 286 287 287 287 288 288 287 287 287 287 286 284 282 280 281 281 279 278 277 276 276 275 274 274 274 274 275 277 278
227 227 228 228 229 229 230 231 231 232 233 234 234 235 236 237 238 238 239 240 241 242 244 245 246 247 249 250 251 253 256 258 259 259 260 262 264 267 270 272 274 275 275 276 276 275 275 276 276 276 277 277 277 278 279 280 281 283 284 284 285 286 286 286 286 286 288 289 287 284 283 281 280 280 280 279 278 277 277 277 276 276 275 275 275 275 275 275
229 229 229 230 231 231 232 233 234 234 235 236 237 238 239 239 240 241 241 242 243 244 245 246 247 248 250 250 252 254 256 257 259 261 262 263 265 267 270 272 272 273 274 274 274 274 275 275 276 276 277 277 277 278 279 280 280 281 282 282 283 284 283 284 285 287 288 286 283 280 280 280 281 280 278 278 278 277 278 278 277 277 277 276 276 275 275 273
232 232 232 232 232 232 233 234 235 236 237 238 239 240 241 242 242 243 243 244 245 245 246 247 248 249 250 251 252 254 256 257 259 261 262 264 266 268 270 271 271 272 272 273 273 274 274 275 276 276 276 277 278 278 279 279 279 281 281 280 280 280 283 285 286 285 283 280 279 279 278 279 281 280 278 278 279 279 279 279 279 279 278 277 276 275 274 273
234 235 235 235 234 234 235 235 236 237 238 239 240 241 242 243 244 245 245 246 246 247 248 249 250 251 251 252 253 254 256 258 260 261 263 265 267 268 269 270 270 271 271 272 273 274 275 275 276 276 276 277 278 279 279 279 279 279 277 277 279 280 283 285 282 279 279 277 276 277 277 278 280 279 278 279 280 280 281 280 280 280 279 277 275 274 272 272
234 235 237 237 238 238 237 237 238 238 239 240 241 242 243 244 245 246 247 247 248 249 249 250 251 252 253 253 254 255 257 258 260 262 264 266 267 268 268 269 269 270 271 272 273 274 275 275 275 276 276 277 279 279 278 278 277 275 275 277 280 281 281 280 279 276 276 276 275 274 275 277 279 278 277 278 279 279 279 280 279 278 277 276 274 273 273 273
234 235 236 238 239 240 240 240 240 240 241 242 243 243 244 245 246 247 248 248 249 250 251 251 253 254 254 254 254 256 258 259 261 263 265 266 267 267 267 268 269 270 271 272 273 273 274 274 275 275 276 278 279 277 275 275 274 276 278 278 278 278 277 277 278 277 275 274 274 275 275 276 278 278 277 277 278 277 277 277 276 276 275 274 274 273 273 273
235 235 236 237 238 240 241 242 242 242 243 244 245 245 246 246 247 248 248 249 250 251 251 252 253 254 254 255 256 258 259 261 262 264 265 265 266 266 267 268 269 270 271 272 272 273 273 274 273 275 278 278 274 273 273 273 275 278 280 278 277 277 277 277 277 277 277 275 274 276 277 276 277 278 278 277 277 276 276 275 274 274 273 273 273 273 273 274
236 236 236 237 237 239 240 242 243 243 244 245 245 246 247 248 249 249 249 250 250 251 252 252 253 254 255 256 257 259 260 261 262 263 264 265 266 267 267 268 269 269 270 271 271 272 272 272 273 276 277 273 271 271 272 275 278 278 278 279 279 277 277 277 275 275 275 275 276 276 276 276 276 277 277 276 275 275 275 274 273 273 273 273 274 274 275 275
236 237 237 238 238 238 239 241 242 243 244 245 246 247 248 249 250 250 250 251 251 251 253 253 254 255 256 257 258 259 260 261 262 263 264 265 266 267 267 268 269 269 270 270 270 271 270 271 274 275 272 270 271 271 273 277 278 278 278 280 280 280 280 278 276 275 274 274 276 276 275 275 275 275 276 275 272 271 272 272 272 272 272 273 274 275 275 276
236 237 238 239 239 240 240 241 242 243 244 246 246 247 248 249 250 251 251 251 251 251 253 254 255 256 256 257 258 259 259 260 261 262 264 265 266 267 267 268 268 269 268 268 269 269 269 271 272 270 269 270 272 273 275 276 276 277 279 280 281 282 282 279 277 277 277 275 275 275 276 275 274 273 273 272 270 269 269 268 269 270 271 272 273 274 275 275
237 237 238 239 239 240 241 242 242 244 244 245 247 247 248 249 250 251 252 252 251 251 253 254 255 256 256 257 258 259 259 260 261 261 263 264 265 266 267 267 267 267 266 267 268 268 268 269 268 268 269 270 271 273 274 275 277 279 279 280 280 281 281 280 278 278 279 276 275 276 276 275 274 273 272 271 270 269 267 267 268 269 270 271 272 272 273 273
238 238 239 239 240 240 241 242 243 244 245 245 246 247 248 249 250 251 252 253 252 251 252 254 255 256 257 257 258 259 259 259 260 261 262 263 263 264 265 265 265 265 266 266 266 267 268 268 267 268 270 270 269 270 273 276 277 279 279 280 281 280 278 277 278 279 279 275 274 277 277 275 273 271 273 273 271 269 268 267 267 268 269 269 270 270 271 270
238 239 240 240 240 241 241 242 243 244 245 246 247 248 248 249 251 252 253 254 253 251 250 252 255 256 257 257 257 258 259 259 260 260 260 260 261 262 263 263 263 265 266 265 265 267 268 268 268 268 268 267 268 269 272 274 276 278 278 278 280 281 279 277 277 277 277 275 273 275 277 277 275 271 272 273 272 269 268 267 267 267 267 268 268 269 269 269
238 239 240 241 241 241 242 243 244 245 246 247 248 249 249 250 251 251 253 254 254 252 251 251 253 255 256 256 257 258 259 258 259 259 259 259 260 260 261 262 262 264 265 265 265 266 266 268 269 267 265 265 266 269 271 273 276 277 277 278 280 280 279 278 277 275 275 275 275 273 275 278 278 276 274 273 270 269 267 267 266 266 266 267 268 268 268 268
237 238 239 241 242 242 243 243 243 245 247 248 249 250 250 250 251 251 252 254 254 252 252 251 252 254 256 256 256 256 257 258 258 257 257 258 258 258 259 261 261 262 263 264 264 264 266 267 267 266 265 265 266 268 271 274 275 275 277 280 282 280 280 278 277 275 273 274 274 273 275 277 277 278 277 274 270 268 267 266 265 265 266 267 267 267 267 268
240 239 239 241 242 243 244 243 243 245 246 247 248 249 250 250 250 251 251 252 254 254 254 253 252 253 255 255 254 254 256 258 257 255 255 256 257 257 258 260 261 260 262 263 264 265 265 265 265 266 266 266 267 269 271 273 273 275 278 281 281 280 279 278 276 274 272 272 272 272 275 277 276 277 275 273 271 268 265 265 265 265 265 265 264 264 265 266
243 243 243 242 243 244 244 244 244 245 247 248 248 249 249 249 249 250 249 251 254 257 257 255 252 251 252 253 253 253 255 256 256 256 255 255 256 258 259 260 262 262 262 263 264 265 265 265 265 266 266 267 268 269 270 271 272 275 277 279 279 278 278 277 275 273 271 270 270 272 274 275 275 274 271 270 271 268 265 264 264 264 265 265 266 267 267 268
245 245 245 244 244 245 245 246 246 246 248 250 250 251 250 249 249 247 247 251 256 258 259 257 254 252 251 251 252 253 253 254 255 256 256 257 258 258 260 260 261 263 263 263 263 265 267 267 266 265 266 267 268 269 269 270 272 274 276 278 278 278 277 275 273 271 270 269 270 272 274 274 273 271 271 269 267 267 265 264 264 266 268 269 270 272 272 273
245 245 245 245 245 246 246 247 248 249 249 250 251 252 252 252 250 248 248 254 257 257 258 259 258 255 253 250 250 251 252 253 254 255 257 259 259 259 260 261 262 264 264 264 264 265 266 267 267 266 266 267 267 267 269 271 273 274 277 278 277 276 274 272 271 270 269 270 272 272 273 272 269 270 272 269 264 263 264 264 266 268 270 271 273 275 276 277
245 245 245 245 245 246 246 246 247 249 250 250 249 249 251 251 250 250 253 255 256 255 256 259 260 258 254 251 249 250 251 253 254 255 257 258 260 260 261 262 262 263 263 263 263 263 264 265 266 267 266 267 267 268 270 271 273 274 276 275 273 272 271 269 269 268 269 271 272 272 271 268 267 269 272 270 266 262 262 264 267 268 269 273 276 279 281 282
243 242 243 244 243 243 244 244 245 247 249 249 247 246 246 246 247 252 255 254 254 255 257 260 261 259 256 254 252 251 252 254 255 256 258 258 259 260 260 260 260 261 262 263 262 263 265 265 266 267 267 268 268 269 270 270 271 272 270 269 268 266 267 269 270 271 272 272 272 272 269 266 265 268 270 270 267 264 264 265 264 266 270 274 277 280 281 282
240 241 241 241 241 241 241 241 243 246 248 246 246 245 244 244 247 252 253 253 254 255 257 259 261 260 259 258 256 254 254 255 255 257 258 258 258 259 259 260 261 261 261 262 262 263 265 266 266 266 267 268 268 267 267 267 268 267 266 266 266 265 267 272 274 273 272 271 269 268 266 266 268 269 268 266 266 266 268 268 268 271 275 278 280 282 282 283
237 240 242 241 240 241 240 240 242 245 246 244 245 246 244 245 248 250 250 251 253 254 256 259 261 262 261 260 258 256 255 255 255 256 258 259 259 260 261 261 260 260 259 260 262 263 265 266 266 265 265 266 265 264 264 264 264 264 263 264 266 268 270 272 272 270 269 269 266 264 265 269 272 272 268 265 265 267 269 270 273 278 281 283 286 286 286 285
225 230 235 238 240 241 241 242 243 246 246 243 242 244 245 246 247 248 249 250 252 253 255 257 259 261 262 262 260 257 256 256 257 258 259 259 259 260 260 260 259 258 259 262 264 265 265 265 265 264 263 262 261 260 260 261 260 260 261 263 267 269 268 267 266 265 266 267 267 268 270 272 273 272 270 269 269 269 269 272 276 280 284 288 291 292 291 288
224 225 228 231 236 238 240 241 242 243 246 245 244 245 247 248 247 248 249 249 250 251 252 254 256 259 260 261 260 259 258 257 256 257 257 257 258 258 258 259 258 257 260 263 264 263 263 263 262 260 259 259 258 257 257 256 257 258 261 265 267 265 262 262 262 263 264 267 270 272 272 273 272 271 272 274 275 274 274 276 277 281 286 292 295 295 293 288
234 234 230 227 229 232 234 235 236 238 240 243 247 247 246 246 245 247 247 247 249 250 250 251 254 256 257 258 259 258 257 257 255 255 256 256 257 257 257 258 257 257 259 258 257 257 257 258 258 257 257 256 254 254 254 253 255 259 264 266 265 262 261 261 261 264 266 267 269 272 274 276 276 276 277 278 279 279 278 278 280 282 288 293 294 294 292 287
237 239 235 229 229 231 232 234 238 240 239 242 246 245 244 245 244 244 247 248 248 249 249 250 252 253 254 256 257 257 256 257 256 255 256 256 256 257 257 257 254 253 254 251 251 252 253 254 256 256 254 253 251 250 251 253 257 262 265 265 263 262 262 261 261 263 264 265 268 272 276 278 278 279 280 280 280 280 280 281 282 284 288 291 293 293 291 287
240 241 237 234 235 234 235 239 241 241 241 243 244 240 239 242 242 242 245 248 248 248 249 248 248 249 250 252 254 255 255 256 256 255 255 255 257 257 257 255 252 250 250 248 248 251 251 252 254 255 252 251 251 252 254 256 259 261 262 263 262 261 261 261 261 259 259 263 269 274 278 280 279 278 278 281 284 285 286 287 287 288 289 291 292 292 289 286
241 241 238 238 240 238 237 240 240 240 242 243 242 238 237 239 240 241 244 247 249 248 247 246 246 246 248 249 251 252 253 254 256 256 255 256 257 258 256 255 251 248 247 247 247 251 254 254 255 256 255 254 255 255 256 256 257 258 260 261 259 257 256 257 259 259 259 262 269 274 278 279 278 278 279 283 286 288 292 293 292 291 290 290 290 289 287 285
239 240 239 238 239 239 239 242 243 243 245 247 246 243 241 241 241 243 246 248 250 249 248 247 246 247 247 248 249 250 250 252 254 256 256 257 257 256 254 251 249 246 245 246 247 249 253 254 255 256 255 255 256 256 255 256 257 257 257 258 256 256 258 259 262 264 263 264 268 273 275 276 278 279 280 282 284 288 293 293 290 288 287 286 286 286 285 284
240 241 240 238 237 236 237 240 242 243 245 248 249 248 245 244 243 243 244 247 248 249 249 249 249 249 249 249 250 251 252 253 254 256 257 258 259 257 254 250 248 246 245 246 247 248 249 251 254 257 256 256 257 257 256 257 256 256 256 257 257 260 264 264 264 264 264 264 267 270 273 276 279 280 281 283 286 289 291 290 288 286 284 283 283 284 284 284
241 241 241 240 238 236 234 235 238 241 243 245 248 248 247 245 245 244 244 246 247 245 247 249 250 252 252 251 252 254 255 257 257 258 259 259 259 259 257 254 251 250 249 249 248 249 250 251 253 256 256 256 256 257 258 259 259 259 259 259 260 265 268 265 263 262 263 264 266 268 272 275 278 280 281 283 285 287 289 289 287 286 285 284 284 284 284 283
238 238 239 239 239 237 236 234 235 238 241 243 245 247 248 247 246 246 245 245 244 244 246 249 251 253 253 252 252 253 254 256 258 259 259 259 259 259 257 256 254 254 254 254 252 250 251 252 253 254 255 257 258 258 261 263 264 263 262 261 263 267 267 264 260 259 261 263 266 270 273 275 277 280 281 282 283 284 285 284 283 283 284 285 285 285 285 285
237 236 236 237 238 238 237 236 236 238 240 242 245 246 248 248 247 247 245 244 243 245 248 250 251 253 253 252 252 252 253 255 257 258 259 259 259 259 258 257 256 254 253 253 253 253 253 254 254 255 257 258 259 260 261 262 262 259 258 257 259 261 260 257 256 258 263 266 269 272 274 275 278 281 280 279 280 281 282 282 281 282 283 284 286 287 288 289
236 237 237 237 237 239 239 238 238 239 241 243 244 245 247 248 247 246 246 246 245 247 250 251 250 251 252 252 253 254 255 256 257 258 259 259 258 258 257 256 256 255 254 253 253 255 256 256 256 257 258 258 258 259 259 258 258 257 256 256 257 256 255 255 258 263 267 268 270 273 275 277 280 279 277 278 280 282 283 283 283 283 284 286 288 288 288 288
235 236 238 238 237 238 241 241 240 241 242 242 244 245 246 247 247 247 248 249 249 248 250 252 250 250 253 253 254 256 256 256 257 258 258 258 256 255 254 255 255 256 256 256 256 257 257 258 259 259 259 259 258 259 258 256 254 254 255 255 256 257 257 259 263 266 266 267 270 274 275 277 278 276 276 279 280 281 281 281 282 284 285 285 285 284 284 283
234 235 237 239 239 239 242 243 243 242 241 242 244 245 246 246 248 249 249 249 248 248 250 252 252 253 254 255 255 254 254 255 257 257 257 257 255 253 253 254 254 255 256 257 258 258 258 258 258 257 256 254 254 254 254 253 251 249 249 251 253 256 258 260 262 264 264 267 271 273 274 275 274 273 275 277 277 277 277 278 280 281 281 281 281 281 282 282
235 235 235 238 240 240 241 242 242 242 241 241 242 244 246 247 247 249 249 249 248 248 249 251 253 254 254 252 251 252 254 255 255 254 254 255 254 253 252 252 252 252 252 253 253 253 252 252 252 251 251 249 248 248 247 248 248 247 248 250 252 253 254 257 260 263 265 269 272 271 270 271 271 272 274 274 274 274 275 277 278 278 279 280 281 282 283 284
235 236 236 237 238 239 240 240 240 240 240 240 240 242 244 246 247 249 250 250 249 248 248 248 250 253 253 250 249 251 253 254 253 253 254 255 255 253 251 251 250 249 249 250 249 249 250 249 248 245 244 244 244 243 243 245 246 246 251 256 256 254 256 259 263 265 266 268 268 267 269 273 273 272 272 272 272 274 276 278 279 280 281 282 283 284 286 286
236 236 236 237 238 237 238 239 238 238 238 238 239 240 242 245 246 246 248 249 249 248 247 246 247 251 253 253 252 254 255 255 254 253 253 254 256 255 251 249 249 249 249 248 248 250 252 253 251 246 241 241 241 243 246 247 246 247 254 259 258 259 262 265 266 266 265 265 265 267 271 273 270 268 269 271 273 275 277 279 280 281 282 283 284 286 286 286
Height
5828 5829 5831 5832 5834 5836 5837 5839 5841 5842 5843 5845 5846 5847 5849 5850 5851 5852 5853 5854 5855 5856 5857 5858 5859 5860 5861 5862 5862 5863 5864 5864 5864 5865 5865 5865 5866 5866 5866 5867 5867 5867 5868 5868 5868 5868 5869 5869 5869 5869 5869 5869 5869 5869 5869 5869 5869 5869 5869 5869 5868 5868 5868 5867 5867 5867 5866 5866 5866 5865 5864 5864 5864 5864 5863 5863 5863 5863 5864 5863 5863 5862 5862 5860 5860 5859 5859 5859
5826 5827 5829 5830 5832 5834 5835 5837 5839 5840 5842 5843 5845 5846 5847 5848 5849 5851 5852 5853 5854 5855 5856 5857 5858 5859 5859 5860 5861 5862 5862 5863 5863 5864 5864 5864 5865 5865 5865 5866 5866 5866 5867 5867 5867 5867 5868 5868 5868 5868 5868 5868 5868 5868 5868 5868 5868 5868 5867 5867 5867 5867 5866 5866 5865 5865 5865 5864 5864 5863 5863 5862 5862 5862 5862 5862 5861 5862 5862 5862 5862 5861 5861 5860 5859 5858 5858 5857
5825 5826 5827 5829 5830 5832 5833 5835 5837 5839 5840 5842 5843 5844 5845 5847 5848 5849 5850 5851 5852 5853 5854 5855 5856 5857 5858 5859 5860 5860 5861 5861 5862 5862 5862 5863 5863 5864 5864 5865 5865 5865 5866 5866 5866 5866 5866 5866 5866 5866 5866 5866 5866 5866 5866 5866 5866 5866 5866 5865 5865 5865 5864 5864 5863 5863 5863 5862 5862 5862 5861 5861 5861 5861 5861 5860 5860 5860 5860 5860 5860 5860 5860 5859 5858 5857 5856 5856
5823 5824 5826 5827 5829 5830 5832 5833 5835 5836 5838 5840 5841 5842 5844 5845 5846 5847 5849 5850 5851 5852 5853 5854 5854 5855 5856 5857 5858 5858 5859 5860 5860 5861 5861 5862 5862 5863 5863 5863 5864 5864 5864 5864 5864 5864 5864 5864 5865 5865 5865 5865 5865 5865 5865 5865 5865 5864 5864 5864 5864 5863 5863 5862 5861 5861 5861 5860 5860 5860 5859 5859 5859 5859 5859 5858 5858 5859 5858 5858 5858 5858 5858 5858 5857 5856 5855 5855
5821 5822 5824 5825 5827 5828 5830 5831 5833 5834 5836 5837 5839 5840 5842 5843 5844 5845 5847 5848 5849 5850 5851 5852 5853 5853 5854 5855 5855 5856 5857 5858 5858 5859 5859 5860 5861 5861 5861 5862 5862 5862 5862 5862 5863 5863 5863 5863 5863 5863 5863 5863 5863 5863 5863 5863 5863 5863 5862 5862 5862 5862 5861 5860 5860 5859 5859 5858 5858 5858 5857 5857 5857 5857 5857 5857 5857 5857 5857 5856 5856 5856 5856 5856 5855 5855 5854 5853
5819 5820 5822 5823 5825 5826 5828 5829 5831 5832 5834 5835 5837 5838 5839 5841 5842 5843 5844 5845 5847 5848 5849 5850 5850 5851 5852 5852 5853 5854 5855 5856 5857 5857 5857 5858 5859 5859 5860 5860 5860 5860 5860 5860 5861 5861 5861 5861 5861 5861 5861 5861 5861 5861 5861 5861 5861 5861 5861 5860 5860 5860 5859 5858 5858 5857 5857 5856 5856 5855 5855 5855 5855 5855 5855 5855 5855 5855 5855 5854 5854 5853 5853 5853 5853 5853 5853 5852
5817 5818 5820 5821 5823 5824 5826 5827 5829 5830 5832 5833 5834 5836 5837 5838 5839 5841 5842 5843 5844 5845 5846 5847 5848 5849 5850 5850 5851 5852 5853 5854 5855 5855 5855 5856 5857 5857 5858 5858 5858 5859 5858 5858 5859 5859 5859 5859 5859 5859 5859 5859 5859 5859 5859 5859 5859 5859 5858 5858 5858 5857 5857 5856 5856 5855 5855 5854 5854 5853 5853 5853 5853 5853 5853 5853 5853 5853 5853 5852 5852 5851 5851 5851 5850 5850 5850 5850
5814 5816 5817 5819 5820 5822 5824 5825 5827 5828 5829 5831 5832 5833 5834 5836 5837 5838 5839 5840 5842 5843 5844 5845 5845 5846 5847 5848 5849 5849 5850 5851 5853 5853 5853 5854 5854 5855 5855 5856 5856 5856 5856 5856 5857 5857 5857 5857 5857 5857 5857 5857 5857 5857 5857 5857 5856 5856 5856 5856 5855 5855 5855 5854 5854 5853 5853 5853 5852 5851 5850 5850 5850 5851 5851 5851 5851 5851 5851 5850 5850 5849 5849 5848 5848 5848 5847 5847
5811 5813 5815 5816 5818 5819 5821 5822 5824 5825 5827 5828 5829 5831 5832 5833 5834 5835 5837 5838 5839 5840 5841 5842 5843 5844 5845 5845 5846 5847 5847 5849 5850 5851 5851 5852 5852 5853 5853 5854 5854 5854 5854 5854 5854 5854 5854 5854 5854 5854 5854 5855 5855 5855 5855 5854 5854 5854 5853 5853 5852 5852 5852 5852 5851 5851 5851 5850 5850 5849 5848 5848 5848 5847 5848 5848 5848 5848 5848 5848 5848 5847 5846 5846 5845 5845 5845 5844
5807 5809 5811 5813 5815 5816 5818 5819 5821 5823 5824 5825 5827 5828 5829 5830 5831 5832 5834 5835 5836 5837 5838 5839 5840 5841 5842 5843 5844 5844 5845 5846 5847 5848 5849 5849 5849 5850 5850 5851 5851 5851 5851 5852 5852 5852 5852 5852 5852 5852 5852 5852 5852 5852 5852 5852 5852 5851 5851 5850 5850 5849 5849 5849 5849 5849 5848 5848 5847 5846 5846 5846 5845 5844 5845 5846 5845 5845 5845 5846 5846 5845 5844 5844 5843 5843 5842 5842
5804 5806 5807 5809 5811 5813 5815 5816 5818 5819 5821 5822 5823 5825 5826 5827 5828 5829 5830 5832 5833 5834 5835 5836 5837 5838 5839 5840 5841 5842 5842 5842 5844 5846 5846 5846 5847 5847 5848 5848 5848 5848 5849 5849 5849 5849 5849 5849 5850 5850 5850 5850 5850 5850 5850 5850 5849 5849 5848 5847 5847 5846 5846 5846 5846 5846 5845 5845 5844 5843 5843 5843 5842 5841 5842 5842 5842 5842 5842 5842 5842 5842 5842 5841 5841 5840 5840 5839
5800 5802 5804 5805 5807 5809 5811 5813 5814 5816 5817 5819 5820 5821 5823 5824 5825 5826 5827 5828 5830 5831 5832 5833 5834 5835 5836 5837 5838 5839 5839 5840 5841 5842 5843 5843 5844 5844 5845 5845 5845 5846 5846 5846 5846 5847 5847 5847 5847 5847 5847 5847 5847 5847 5847 5847 5846 5846 5845 5845 5844 5843 5843 5843 5842 5842 5842 5842 5841 5840 5839 5839 5839 5839 5838 5838 5839 5839 5839 5839 5839 5839 5839 5839 5838 5838 5837 5837
5796 5798 5800 5801 5803 5805 5807 5809 5811 5812 5813 5815 5816 5818 5819 5820 5822 5823 5824 5825 5826 5827 5828 5829 5831 5832 5833 5834 5836 5836 5836 5837 5838 5839 5840 5840 5841 5841 5842 5842 5842 5843 5843 5843 5844 5844 5844 5844 5844 5844 5845 5845 5845 5844 5844 5844 5843 5843 5842 5842 5841 5840 5839 5840 5839 5838 5838 5838 5838 5837 5835 5835 5836 5836 5835 5835 5836 5835 5836 5836 5836 5836 5836 5835 5835 5835 5835 5834
5792 5794 5796 5797 5799 5801 5803 5805 5806 5808 5810 5811 5812 5814 5815 5817 5818 5819 5821 5822 5823 5824 5825 5826 5827 5828 5829 5831 5833 5833 5833 5834 5834 5835 5836 5837 5837 5838 5839 5839 5839 5839 5840 5840 5840 5841 5841 5841 5841 5841 5842 5841 5842 5841 5841 5841 5840 5839 5839 5838 5838 5837 5836 5837 5837 5835 5835 5835 5834 5834 5833 5831 5832 5834 5832 5832 5832 5832 5833 5832 5832 5832 5832 5832 5832 5831 5831 5831
5787 5789 5791 5793 5795 5797 5799 5800 5802 5804 5806 5807 5809 5810 5811 5813 5814 5816 5817 5818 5819 5820 5821 5822 5823 5824 5826 5828 5830 5830 5830 5831 5831 5832 5832 5833 5834 5835 5835 5835 5836 5836 5836 5837 5837 5837 5838 5838 5838 5838 5838 5838 5838 5838 5838 5837 5837 5837 5836 5834 5835 5834 5832 5833 5835 5833 5832 5832 5830 5830 5830 5828 5829 5830 5829 5829 5829 5829 5829 5829 5829 5829 5828 5828 5828 5828 5828 5827
5783 5785 5787 5789 5790 5792 5794 5796 5798 5800 5801 5803 5804 5806 5807 5808 5810 5811 5813 5814 5815 5816 5817 5818 5820 5821 5822 5824 5826 5827 5827 5827 5827 5828 5829 5830 5831 5831 5832 5832 5832 5832 5833 5833 5833 5834 5834 5834 5834 5834 5834 5834 5834 5835 5833 5833 5833 5833 5832 5830 5831 5832 5830 5829 5830 5830 5828 5828 5827 5827 5827 5826 5826 5827 5826 5826 5826 5826 5826 5826 5825 5825 5825 5824 5824 5824 5824 5824
5777 5780 5782 5784 5786 5788 5789 5791 5793 5795 5797 5799 5800 5801 5803 5804 5806 5807 5808 5810 5811 5812 5813 5815 5816 5817 5818 5821 5822 5823 5823 5823 5824 5825 5825 5826 5827 5827 5828 5828 5828 5828 5829 5829 5830 5830 5830 5830 5830 5830 5830 5831 5831 5831 5829 5829 5829 5828 5828 5828 5827 5828 5828 5826 5825 5827 5826 5824 5824 5824 5824 5823 5823 5824 5824 5823 5823 5823 5822 5822 5822 5821 5821 5821 5820 5820 5820 5821
5772 5774 5777 5779 5781 5783 5785 5786 5788 5790 5792 5794 5795 5797 5798 5799 5801 5802 5804 5805 5806 5808 5809 5811 5812 5813 5814 5816 5818 5819 5819 5819 5820 5821 5821 5822 5823 5823 5823 5824 5824 5824 5825 5825 5826 5826 5826 5826 5826 5825 5827 5828 5828 5826 5824 5824 5824 5823 5824 5825 5825 5824 5825 5824 5821 5822 5822 5820 5819 5819 5821 5821 5819 5820 5821 5820 5820 5819 5819 5819 5818 5817 5817 5817 5817 5817 5817 5817
5767 5769 5771 5774 5776 5778 5780 5781 5783 5785 5787 5788 5790 5792 5793 5794 5796 5797 5798 5800 5802 5803 5804 5806 5808 5808 5810 5812 5813 5815 5815 5816 5817 5817 5817 5818 5818 5818 5819 5820 5820 5820 5821 5821 5821 5822 5822 5822 5821 5822 5824 5824 5823 5821 5820 5820 5820 5821 5820 5820 5821 5821 5821 5821 5818 5818 5818 5815 5815 5816 5816 5817 5817 5816 5817 5817 5816 5815 5815 5815 5814 5813 5813 5813 5813 5813 5813 5814
5762 5764 5766 5768 5770 5772 5774 5776 5778 5780 5782 5783 5785 5787 5788 5789 5790 5791 5793 5795 5797 5798 5799 5801 5803 5804 5805 5807 5809 5810 5811 5812 5812 5813 5813 5813 5814 5814 5815 5815 5816 5816 5817 5817 5817 5818 5817 5816 5818 5820 5821 5819 5818 5818 5816 5816 5817 5818 5816 5816 5817 5816 5817 5817 5815 5815 5814 5810 5811 5812 5812 5813 5814 5812 5812 5814 5812 5811 5811 5811 5810 5810 5809 5809 5809 5809 5809 5810
5757 5759 5761 5763 5765 5767 5769 5771 5773 5775 5777 5778 5780 5782 5783 5784 5784 5786 5788 5789 5791 5793 5794 5796 5798 5799 5801 5802 5804 5805 5806 5807 5808 5808 5808 5809 5809 5810 5810 5811 5811 5812 5812 5812 5812 5813 5812 5812 5815 5817 5816 5814 5813 5813 5813 5813 5813 5813 5812 5812 5812 5812 5813 5813 5810 5810 5810 5807 5806 5807 5807 5808 5810 5808 5808 5810 5809 5807 5808 5807 5806 5806 5805 5806 5805 5806 5806 5806
5751 5753 5756 5758 5760 5762 5764 5766 5768 5770 5772 5773 5775 5776 5777 5778 5779 5780 5782 5783 5785 5788 5789 5790 5793 5794 5796 5798 5799 5800 5801 5802 5803 5804 5804 5804 5804 5805 5806 5806 5806 5807 5808 5807 5807 5808 5808 5809 5812 5811 5810 5810 5809 5809 5809 5809 5809 5809 5808 5808 5807 5808 5808 5807 5806 5806 5806 5804 5802 5802 5803 5804 5805 5805 5804 5806 5804 5804 5804 5803 5803 5802 5802 5802 5802 5802 5803 5803
5745 5748 5750 5752 5755 5756 5759 5761 5763 5765 5766 5768 5769 5770 5771 5772 5773 5774 5775 5775 5779 5782 5784 5785 5788 5789 5791 5792 5794 5795 5795 5797 5798 5799 5799 5799 5800 5800 5801 5802 5802 5802 5803 5803 5803 5803 5804 5805 5807 5806 5806 5806 5806 5806 5806 5805 5805 5805 5805 5804 5803 5804 5804 5802 5801 5802 5802 5800 5798 5798 5798 5799 5801 5800 5800 5801 5800 5800 5800 5799 5799 5799 5798 5799 5798 5799 5799 5799
5740 5742 5744 5747 5749 5751 5754 5755 5758 5759 5760 5762 5764 5764 5765 5766 5767 5768 5768 5768 5771 5776 5780 5781 5782 5783 5785 5787 5789 5789 5789 5791 5792 5793 5795 5795 5795 5796 5797 5798 5798 5797 5798 5800 5799 5799 5799 5799 5801 5802 5802 5802 5802 5802 5802 5801 5801 5801 5800 5800 5800 5800 5799 5798 5797 5797 5798 5797 5796 5795 5793 5794 5798 5797 5797 5797 5796 5796 5796 5795 5795 5795 5795 5795 5795 5795 5795 5795
5734 5736 5738 5741 5742 5745 5748 5749 5753 5754 5755 5758 5758 5757 5759 5761 5761 5762 5762 5761 5763 5769 5774 5776 5776 5778 5779 5781 5783 5782 5783 5786 5786 5789 5790 5790 5790 5791 5792 5793 5793 5793 5794 5795 5795 5795 5794 5793 5796 5799 5798 5798 5797 5797 5798 5798 5797 5796 5795 5796 5797 5795 5794 5794 5793 5793 5793 5791 5792 5793 5790 5789 5792 5793 5794 5794 5792 5792 5792 5791 5791 5791 5791 5791 5791 5792 5792 5792
5727 5729 5732 5733 5736 5739 5741 5744 5748 5748 5750 5753 5751 5751 5754 5755 5755 5756 5756 5754 5755 5761 5768 5771 5772 5772 5773 5775 5777 5777 5778 5779 5782 5784 5785 5785 5786 5787 5787 5788 5789 5789 5789 5790 5790 5790 5789 5790 5792 5794 5793 5793 5793 5792 5794 5795 5794 5791 5789 5792 5794 5792 5790 5789 5789 5789 5788 5786 5787 5789 5788 5785 5785 5788 5790 5790 5788 5787 5788 5787 5787 5787 5787 5788 5788 5788 5788 5789
5721 5723 5725 5727 5730 5733 5735 5739 5742 5742 5744 5745 5744 5745 5748 5749 5748 5750 5751 5747 5747 5754 5761 5765 5767 5766 5768 5770 5772 5772 5770 5773 5777 5779 5780 5780 5781 5782 5782 5783 5784 5785 5785 5785 5785 5785 5786 5787 5787 5788 5788 5788 5788 5788 5790 5791 5789 5786 5785 5787 5789 5787 5786 5785 5784 5784 5783 5782 5780 5783 5785 5783 5781 5783 5786 5785 5783 5784 5784 5783 5783 5783 5784 5784 5784 5785 5785 5785
5714 5717 5719 5722 5724 5727 5729 5733 5735 5737 5737 5737 5738 5739 5740 5741 5742 5743 5744 5739 5741 5749 5754 5758 5761 5762 5763 5764 5766 5766 5765 5769 5772 5774 5776 5775 5776 5777 5777 5778 5779 5780 5780 5780 5780 5781 5782 5782 5782 5784 5783 5783 5784 5785 5786 5786 5784 5782 5782 5783 5783 5782 5781 5781 5780 5778 5778 5777 5775 5777 5781 5779 5777 5779 5781 5780 5779 5780 5780 5779 5780 5780 5780 5781 5780 5781 5781 5781
5708 5710 5713 5715 5718 5721 5723 5726 5730 5731 5730 5730 5731 5732 5733 5734 5735 5736 5734 5732 5739 5745 5746 5749 5754 5757 5758 5758 5760 5761 5762 5764 5766 5769 5770 5770 5771 5772 5772 5774 5773 5774 5776 5775 5775 5775 5776 5777 5779 5779 5778 5778 5779 5781 5781 5780 5779 5778 5778 5778 5777 5776 5776 5775 5774 5773 5772 5771 5770 5773 5776 5775 5773 5773 5775 5777 5776 5776 5776 5776 5776 5777 5777 5777 5777 5777 5777 5778
5701 5704 5706 5708 5711 5715 5718 5721 5724 5725 5723 5723 5724 5724 5725 5726 5728 5727 5723 5728 5739 5740 5735 5738 5745 5751 5753 5754 5755 5756 5758 5759 5760 5763 5763 5764 5766 5767 5768 5769 5768 5767 5769 5770 5770 5770 5770 5772 5773 5773 5774 5774 5774 5775 5775 5774 5774 5774 5773 5773 5771 5771 5771 5769 5769 5768 5766 5764 5767 5771 5772 5771 5769 5767 5770 5774 5774 5772 5773 5773 5773 5774 5773 5773 5774 5774 5774 5774
5695 5698 5699 5702 5705 5708 5712 5714 5717 5717 5715 5715 5717 5717 5717 5719 5719 5716 5717 5729 5737 5733 5727 5728 5736 5743 5746 5748 5749 5750 5752 5753 5755 5757 5757 5759 5760 5761 5763 5763 5763 5762 5763 5764 5764 5765 5766 5766 5766 5768 5769 5768 5768 5769 5769 5769 5769 5769 5768 5768 5767 5765 5765 5764 5763 5762 5761 5760 5763 5767 5768 5766 5764 5763 5765 5768 5770 5770 5770 5770 5770 5771 5770 5770 5770 5770 5770 5770
5688 5691 5693 5696 5699 5701 5705 5708 5709 5707 5706 5708 5709 5708 5711 5711 5707 5708 5717 5728 5727 5722 5720 5721 5727 5734 5737 5740 5743 5745 5747 5748 5750 5751 5752 5754 5754 5755 5757 5758 5758 5757 5756 5757 5759 5759 5760 5760 5760 5761 5762 5762 5763 5763 5764 5764 5764 5764 5764 5762 5762 5760 5758 5757 5757 5756 5757 5757 5758 5761 5762 5760 5759 5761 5761 5762 5765 5766 5766 5767 5767 5767 5767 5767 5767 5767 5767 5767
5683 5685 5686 5689 5693 5695 5697 5701 5701 5698 5699 5701 5699 5700 5704 5698 5697 5707 5717 5720 5716 5715 5717 5717 5719 5725 5730 5733 5737 5740 5742 5743 5745 5746 5746 5748 5748 5749 5751 5751 5752 5752 5751 5752 5752 5753 5753 5754 5755 5755 5756 5757 5758 5758 5758 5759 5759 5759 5758 5756 5756 5755 5752 5752 5753 5753 5753 5754 5754 5755 5756 5754 5755 5758 5758 5758 5760 5761 5762 5763 5763 5764 5763 5763 5763 5763 5763 5763
5677 5678 5680 5682 5685 5686 5689 5693 5693 5691 5692 5692 5691 5692 5691 5687 5695 5708 5710 5708 5709 5710 5713 5713 5712 5717 5722 5726 5731 5734 5735 5735 5739 5740 5739 5741 5741 5742 5745 5745 5746 5748 5747 5745 5745 5747 5747 5747 5749 5750 5751 5752 5752 5753 5752 5753 5753 5752 5752 5751 5750 5751 5749 5749 5750 5749 5748 5749 5750 5750 5749 5749 5751 5755 5756 5755 5756 5756 5757 5758 5758 5759 5759 5759 5759 5759 5759 5759
5670 5671 5672 5675 5677 5679 5683 5685 5684 5684 5684 5684 5683 5680 5679 5684 5697 5702 5699 5702 5704 5705 5709 5709 5707 5710 5714 5718 5723 5727 5727 5728 5731 5732 5732 5733 5734 5736 5738 5739 5740 5741 5741 5739 5739 5741 5741 5740 5743 5744 5745 5746 5746 5747 5746 5746 5747 5746 5746 5745 5746 5748 5748 5747 5746 5745 5744 5744 5744 5745 5745 5746 5748 5750 5751 5752 5752 5753 5753 5753 5753 5753 5753 5754 5754 5754 5755 5755
5661 5663 5664 5667 5671 5674 5676 5678 5678 5676 5676 5677 5673 5669 5675 5686 5692 5692 5693 5699 5699 5700 5705 5704 5701 5704 5707 5709 5714 5718 5720 5722 5723 5724 5724 5726 5727 5729 5730 5731 5733 5734 5734 5734 5733 5734 5734 5733 5735 5737 5738 5739 5740 5740 5740 5741 5741 5741 5741 5741 5743 5745 5744 5742 5741 5740 5740 5739 5739 5741 5743 5744 5745 5745 5746 5747 5748 5749 5748 5748 5748 5748 5748 5748 5749 5749 5749 5749
5654 5655 5657 5661 5666 5667 5669 5672 5672 5669 5670 5669 5663 5665 5676 5683 5684 5685 5689 5692 5692 5695 5699 5697 5696 5699 5700 5701 5704 5709 5712 5714 5716 5716 5717 5718 5719 5722 5724 5724 5726 5728 5729 5729 5727 5727 5727 5726 5728 5731 5731 5733 5734 5734 5735 5735 5734 5735 5737 5739 5740 5740 5738 5737 5736 5736 5736 5735 5736 5737 5739 5740 5741 5741 5743 5744 5744 5744 5744 5744 5744 5744 5744 5744 5743 5743 5743 5743
5647 5648 5650 5656 5660 5661 5663 5666 5664 5661 5662 5659 5656 5663 5673 5675 5677 5680 5681 5683 5686 5688 5690 5691 5692 5693 5693 5694 5696 5700 5703 5704 5707 5709 5709 5711 5713 5716 5718 5717 5720 5722 5723 5722 5719 5720 5722 5720 5721 5724 5724 5726 5728 5728 5728 5729 5729 5731 5733 5735 5735 5733 5733 5733 5732 5732 5732 5732 5733 5733 5734 5736 5736 5737 5739 5740 5739 5738 5739 5739 5739 5740 5739 5739 5738 5738 5737 5738
5639 5639 5643 5650 5654 5655 5657 5659 5657 5653 5651 5650 5651 5660 5667 5668 5672 5674 5674 5678 5680 5680 5683 5686 5688 5687 5687 5689 5689 5691 5695 5696 5698 5701 5702 5704 5707 5709 5711 5711 5713 5715 5715 5715 5713 5715 5717 5715 5715 5718 5719 5720 5721 5721 5722 5724 5727 5728 5728 5729 5729 5728 5728 5728 5728 5729 5729 5728 5729 5729 5729 5731 5732 5733 5734 5734 5734 5734 5734 5734 5735 5735 5735 5733 5733 5732 5732 5732
5631 5632 5638 5645 5646 5648 5651 5652 5649 5643 5642 5644 5648 5656 5661 5661 5664 5667 5669 5671 5672 5673 5677 5679 5681 5681 5681 5683 5683 5685 5688 5689 5690 5693 5695 5697 5700 5702 5704 5705 5707 5709 5709 5709 5709 5709 5710 5710 5709 5711 5714 5714 5715 5717 5719 5722 5723 5723 5722 5722 5723 5723 5723 5722 5723 5725 5725 5724 5725 5725 5724 5725 5727 5728 5728 5729 5729 5729 5729 5729 5729 5730 5729 5728 5727 5727 5727 5727
5623 5624 5632 5639 5639 5642 5643 5641 5638 5635 5636 5641 5645 5651 5654 5654 5657 5660 5662 5663 5664 5667 5669 5671 5673 5675 5675 5677 5678 5679 5682 5682 5683 5686 5688 5691 5694 5696 5698 5699 5701 5703 5703 5703 5704 5705 5705 5706 5706 5706 5708 5709 5711 5714 5716 5716 5716 5717 5717 5717 5717 5718 5717 5717 5717 5719 5720 5721 5721 5720 5720 5721 5721 5722 5722 5723 5723 5724 5724 5724 5724 5723 5723 5722 5722 5722 5721 5721
5614 5617 5627 5632 5632 5635 5635 5631 5630 5629 5631 5636 5641 5645 5647 5648 5651 5653 5655 5657 5658 5660 5662 5663 5666 5668 5669 5671 5672 5673 5676 5677 5677 5679 5681 5685 5688 5690 5692 5693 5694 5696 5697 5697 5700 5701 5701 5701 5701 5701 5703 5704 5706 5708 5709 5709 5710 5711 5710 5710 5711 5712 5712 5712 5713 5714 5716 5716 5716 5716 5715 5715 5717 5717 5717 5716 5717 5719 5719 5719 5718 5717 5717 5716 5716 5716 5716 5716
5608 5614 5621 5622 5624 5627 5626 5623 5623 5622 5626 5632 5635 5637 5640 5642 5644 5647 5649 5651 5652 5654 5656 5658 5660 5662 5664 5665 5666 5667 5670 5671 5671 5673 5676 5678 5680 5683 5685 5687 5688 5690 5691 5693 5694 5696 5696 5696 5696 5695 5697 5699 5700 5701 5702 5702 5702 5702 5703 5704 5706 5708 5709 5708 5709 5709 5709 5710 5710 5710 5709 5710 5711 5711 5711 5711 5711 5712 5712 5712 5711 5710 5710 5710 5710 5710 5710 5709
5604 5608 5611 5612 5615 5617 5615 5615 5616 5617 5623 5627 5627 5630 5633 5635 5638 5642 5644 5645 5646 5648 5650 5652 5655 5656 5658 5660 5660 5662 5664 5665 5666 5668 5670 5671 5673 5676 5679 5681 5682 5684 5686 5687 5689 5690 5691 5692 5691 5689 5690 5691 5692 5693 5694 5695 5695 5696 5699 5701 5703 5704 5703 5703 5703 5703 5703 5703 5703 5703 5703 5705 5706 5705 5705 5706 5706 5706 5705 5704 5703 5701 5701 5702 5703 5703 5703 5702
5596 5598 5600 5603 5604 5605 5606 5609 5612 5614 5618 5620 5620 5624 5626 5628 5633 5637 5638 5639 5640 5642 5644 5646 5649 5650 5651 5652 5654 5656 5658 5659 5660 5663 5664 5665 5667 5669 5672 5673 5676 5678 5680 5681 5683 5683 5684 5685 5683 5682 5683 5683 5684 5686 5688 5691 5692 5694 5696 5697 5698 5698 5697 5697 5697 5695 5696 5696 5696 5698 5699 5699 5700 5700 5700 5701 5700 5700 5699 5698 5697 5696 5695 5695 5695 5695 5695 5694
5586 5587 5591 5594 5595 5596 5599 5604 5606 5607 5611 5613 5614 5618 5620 5622 5628 5631 5630 5632 5635 5637 5638 5640 5642 5643 5643 5645 5647 5649 5652 5653 5653 5655 5658 5660 5661 5663 5664 5666 5669 5672 5673 5674 5675 5676 5677 5677 5676 5677 5677 5677 5678 5680 5683 5686 5687 5687 5689 5690 5690 5690 5689 5689 5687 5687 5689 5690 5691 5693 5693 5694 5696 5695 5694 5694 5693 5693 5693 5691 5691 5691 5689 5688 5688 5688 5687 5687
5576 5578 5583 5587 5588 5587 5590 5596 5599 5601 5606 5608 5607 5611 5614 5616 5620 5622 5623 5627 5630 5632 5632 5632 5634 5636 5638 5640 5641 5642 5645 5646 5646 5649 5652 5654 5655 5656 5657 5659 5661 5664 5666 5667 5667 5668 5669 5669 5671 5672 5671 5671 5672 5674 5676 5679 5679 5680 5682 5683 5683 5682 5681 5680 5679 5682 5684 5683 5685 5688 5687 5689 5691 5687 5685 5687 5686 5686 5686 5685 5684 5683 5682 5681 5682 5682 5682 5682
5567 5571 5576 5579 5580 5579 5582 5589 5594 5597 5601 5601 5600 5604 5607 5609 5612 5614 5617 5622 5624 5625 5625 5624 5628 5632 5634 5636 5636 5635 5637 5638 5640 5643 5645 5647 5648 5649 5650 5651 5653 5656 5658 5658 5659 5660 5660 5661 5664 5665 5663 5664 5665 5666 5669 5671 5671 5673 5674 5676 5676 5675 5674 5673 5674 5677 5677 5676 5679 5682 5681 5685 5686 5679 5677 5681 5681 5680 5679 5677 5676 5676 5675 5676 5676 5677 5677 5675
5560 5565 5569 5570 5571 5574 5577 5582 5586 5588 5592 5594 5594 5596 5599 5601 5605 5608 5612 5614 5614 5617 5618 5618 5624 5629 5629 5629 5629 5628 5629 5632 5634 5636 5639 5640 5641 5643 5644 5645 5647 5649 5651 5651 5651 5652 5652 5653 5656 5657 5656 5657 5657 5658 5661 5662 5662 5665 5667 5670 5671 5669 5667 5666 5668 5670 5669 5670 5675 5675 5672 5677 5679 5673 5672 5675 5674 5673 5671 5670 5671 5671 5671 5671 5670 5669 5669 5668
5553 5558 5561 5563 5564 5568 5571 5574 5577 5579 5584 5586 5586 5588 5592 5595 5599 5603 5604 5604 5606 5610 5612 5613 5619 5623 5622 5622 5621 5620 5624 5627 5628 5630 5633 5633 5634 5636 5638 5638 5641 5643 5644 5645 5645 5645 5646 5646 5648 5650 5649 5649 5650 5652 5652 5653 5654 5656 5660 5664 5664 5660 5658 5658 5662 5664 5663 5665 5670 5667 5664 5670 5672 5668 5667 5667 5666 5665 5664 5665 5666 5665 5665 5664 5662 5662 5661 5660
5546 5550 5553 5555 5557 5561 5563 5566 5569 5571 5574 5577 5579 5583 5586 5589 5594 5597 5596 5596 5599 5602 5604 5608 5614 5615 5613 5613 5615 5617 5620 5621 5620 5623 5626 5627 5628 5630 5630 5631 5633 5635 5637 5638 5639 5640 5641 5640 5641 5643 5641 5640 5644 5644 5644 5646 5646 5646 5652 5659 5656 5650 5650 5654 5657 5658 5656 5658 5660 5657 5658 5664 5664 5661 5659 5658 5657 5658 5657 5658 5658 5658 5657 5656 5655 5655 5654 5653
5538 5541 5544 5547 5548 5552 5555 5558 5561 5562 5565 5570 5574 5577 5579 5583 5588 5589 5587 5588 5592 5594 5597 5602 5605 5604 5604 5607 5611 5613 5613 5612 5613 5616 5618 5619 5620 5621 5622 5623 5625 5627 5629 5631 5632 5633 5635 5634 5635 5636 5634 5634 5636 5637 5638 5638 5635 5637 5647 5653 5648 5644 5646 5649 5650 5650 5649 5650 5650 5650 5653 5657 5653 5651 5652 5651 5651 5651 5650 5649 5649 5649 5649 5648 5648 5648 5646 5644